QPF
0.00 0.00 0.00 0.00 0.00 0.00 0.00 0.00 0.00 0.00 0.00 0.00 0.00 0.00 0.00 0.00 0.00 0.00 0.00 0.00 0.00 0.00 0.00 0.00 0.00 0.00 0.00 0.00 0.00 0.00 0.00 0.00 0.00 0.00 0.00 0.00 0.00 0.00 0.00 0.00 0.00 0.00 0.00 0.00 0.00 0.00 0.00 0.00 0.00
0.00 0.00 0.00 0.00 0.00 0.00 0.00 0.00 0.00 0.00 0.00 0.00 0.00 0.00 0.00 0.00 0.00 0.00 0.00 0.00 0.00 0.00 0.00 0.00 0.00 0.00 0.00 0.00 0.00 0.00 0.00 0.00 0.00 0.00 0.00 0.00 0.00 0.00 0.00 0.00 0.00 0.00 0.00 0.00 0.00 0.00 0.00 0.00 0.00
0.00 0.00 0.00 0.00 0.00 0.00 0.00 0.00 0.00 0.00 0.00 0.00 0.00 0.00 0.00 0.00 0.00 0.00 0.00 0.00 0.00 0.00 0.00 0.00 0.00 0.00 0.00 0.00 0.00 0.00 0.00 0.00 0.00 0.00 0.00 0.00 0.00 0.00 0.00 0.00 0.00 0.00 0.00 0.00 0.00 0.00 0.00 0.00 0.00
0.00 0.00 0.00 0.00 0.00 0.00 0.00 0.00 0.00 0.00 0.00 0.00 0.00 0.00 0.00 0.00 0.00 0.00 0.00 0.00 0.00 0.00 0.00 0.00 0.00 0.00 0.00 0.00 0.00 0.00 0.00 0.00 0.00 0.00 0.00 0.00 0.00 0.00 0.00 0.00 0.00 0.00 0.00 0.00 0.00 0.00 0.00 0.00 0.00
0.00 0.00 0.00 0.00 0.00 0.00 0.00 0.00 0.00 0.00 0.00 0.00 0.00 0.00 0.00 0.00 0.00 0.00 0.00 0.00 0.00 0.00 0.00 0.00 0.00 0.00 0.00 0.00 0.00 0.00 0.00 0.00 0.00 0.00 0.00 0.00 0.00 0.00 0.00 0.00 0.00 0.00 0.00 0.00 0.00 0.00 0.00 0.00 0.00
0.00 0.00 0.00 0.00 0.00 0.00 0.00 0.00 0.00 0.00 0.00 0.00 0.00 0.00 0.00 0.00 0.00 0.00 0.00 0.00 0.00 0.00 0.00 0.00 0.00 0.00 0.00 0.00 0.00 0.00 0.00 0.00 0.00 0.00 0.00 0.00 0.00 0.00 0.00 0.00 0.00 0.00 0.00 0.00 0.00 0.00 0.00 0.00 0.00
0.00 0.00 0.00 0.00 0.00 0.00 0.00 0.00 0.00 0.00 0.00 0.00 0.00 0.00 0.00 0.00 0.00 0.00 0.00 0.00 0.00 0.00 0.00 0.00 0.00 0.00 0.00 0.00 0.00 0.00 0.00 0.00 0.00 0.00 0.00 0.00 0.00 0.00 0.00 0.00 0.00 0.00 0.00 0.00 0.00 0.00 0.00 0.00 0.00
0.00 0.00 0.00 0.00 0.00 0.00 0.00 0.00 0.00 0.00 0.00 0.00 0.00 0.00 0.00 0.00 0.00 0.00 0.00 0.00 0.00 0.00 0.00 0.00 0.00 0.00 0.00 0.00 0.00 0.00 0.00 0.00 0.00 0.00 0.00 0.00 0.00 0.00 0.00 0.00 0.00 0.00 0.00 0.00 0.00 0.00 0.00 0.00 0.00
0.00 0.00 0.00 0.00 0.00 0.00 0.00 0.00 0.00 0.00 0.00 0.00 0.00 0.00 0.00 0.00 0.00 0.00 0.00 0.00 0.00 0.00 0.00 0.00 0.00 0.00 0.00 0.00 0.00 0.00 0.00 0.00 0.00 0.00 0.00 0.00 0.00 0.00 0.00 0.00 0.00 0.00 0.00 0.00 0.00 0.00 0.00 0.00 0.00
0.00 0.00 0.00 0.00 0.00 0.00 0.00 0.00 0.00 0.00 0.00 0.00 0.00 0.00 0.00 0.00 0.00 0.00 0.00 0.00 0.00 0.00 0.00 0.00 0.00 0.00 0.00 0.00 0.00 0.00 0.00 0.00 0.00 0.00 0.00 0.00 0.00 0.00 0.00 0.00 0.00 0.00 0.00 0.00 0.00 0.00 0.00 0.00 0.00
0.00 0.00 0.00 0.00 0.00 0.00 0.00 0.00 0.00 0.00 0.00 0.00 0.00 0.00 0.00 0.00 0.00 0.00 0.00 0.00 0.00 0.00 0.00 0.00 0.00 0.00 0.00 0.00 0.00 0.00 0.00 0.00 0.00 0.00 0.00 0.00 0.00 0.00 0.00 0.00 0.00 0.00 0.00 0.00 0.00 0.00 0.00 0.00 0.00
0.00 0.00 0.00 0.00 0.00 0.00 0.00 0.00 0.00 0.00 0.00 0.00 0.00 0.00 0.00 0.00 0.00 0.00 0.00 0.00 0.00 0.00 0.00 0.00 0.00 0.00 0.00 0.00 0.00 0.00 0.00 0.00 0.00 0.00 0.00 0.00 0.00 0.00 0.00 0.00 0.00 0.00 0.00 0.00 0.00 0.00 0.00 0.00 0.00
0.00 0.00 0.00 0.00 0.00 0.00 0.00 0.00 0.00 0.00 0.00 0.00 0.00 0.00 0.00 0.00 0.00 0.00 0.00 0.00 0.00 0.00 0.00 0.00 0.00 0.00 0.00 0.00 0.00 0.00 0.00 0.00 0.00 0.00 0.00 0.00 0.00 0.00 0.00 0.00 0.00 0.00 0.00 0.00 0.00 0.00 0.00 0.00 0.00
0.00 0.00 0.00 0.00 0.00 0.00 0.00 0.00 0.00 0.00 0.00 0.00 0.00 0.00 0.00 0.00 0.00 0.00 0.00 0.00 0.00 0.00 0.00 0.00 0.00 0.00 0.00 0.00 0.00 0.00 0.00 0.00 0.00 0.00 0.00 0.00 0.00 0.00 0.00 0.00 0.00 0.00 0.00 0.00 0.00 0.00 0.00 0.00 0.00
0.00 0.00 0.00 0.00 0.00 0.00 0.00 0.00 0.00 0.00 0.00 0.00 0.00 0.00 0.00 0.00 0.00 0.00 0.00 0.00 0.00 0.00 0.00 0.00 0.00 0.00 0.00 0.00 0.00 0.00 0.00 0.00 0.00 0.00 0.00 0.00 0.00 0.00 0.00 0.00 0.00 0.00 0.00 0.00 0.00 0.00 0.00 0.00 0.00
0.00 0.00 0.00 0.00 0.00 0.00 0.00 0.00 0.00 0.00 0.00 0.00 0.00 0.00 0.00 0.00 0.00 0.00 0.00 0.00 0.00 0.00 0.00 0.00 0.00 0.00 0.00 0.00 0.00 0.00 0.00 0.00 0.00 0.00 0.00 0.00 0.00 0.00 0.00 0.00 0.00 0.00 0.00 0.00 0.00 0.00 0.00 0.00 0.00
0.00 0.00 0.00 0.00 0.00 0.00 0.00 0.00 0.00 0.00 0.00 0.00 0.00 0.00 0.00 0.00 0.00 0.00 0.00 0.00 0.00 0.00 0.00 0.00 0.00 0.00 0.00 0.00 0.00 0.00 0.00 0.00 0.00 0.00 0.00 0.00 0.00 0.00 0.00 0.00 0.00 0.00 0.00 0.00 0.00 0.00 0.00 0.00 0.00
0.00 0.00 0.00 0.00 0.00 0.00 0.00 0.00 0.00 0.00 0.00 0.00 0.00 0.00 0.00 0.00 0.00 0.00 0.00 0.00 0.00 0.00 0.00 0.00 0.00 0.00 0.00 0.00 0.00 0.00 0.00 0.00 0.00 0.00 0.00 0.00 0.00 0.00 0.00 0.00 0.00 0.00 0.00 0.00 0.00 0.00 0.00 0.00 0.00
0.00 0.00 0.00 0.00 0.00 0.00 0.00 0.00 0.00 0.00 0.00 0.00 0.00 0.00 0.00 0.00 0.00 0.00 0.00 0.00 0.00 0.00 0.00 0.00 0.00 0.00 0.00 0.00 0.00 0.00 0.00 0.00 0.00 0.00 0.00 0.00 0.00 0.00 0.00 0.00 0.00 0.00 0.00 0.00 0.00 0.00 0.00 0.00 0.00
0.00 0.00 0.00 0.00 0.00 0.00 0.00 0.00 0.00 0.00 0.00 0.00 0.00 0.00 0.00 0.00 0.00 0.00 0.00 0.00 0.00 0.00 0.00 0.00 0.00 0.00 0.00 0.00 0.00 0.00 0.00 0.00 0.00 0.00 0.00 0.00 0.00 0.00 0.00 0.00 0.00 0.00 0.00 0.00 0.00 0.00 0.00 0.00 0.00
0.00 0.00 0.00 0.00 0.00 0.00 0.00 0.00 0.00 0.00 0.00 0.00 0.00 0.00 0.00 0.00 0.00 0.00 0.00 0.00 0.00 0.00 0.00 0.00 0.00 0.00 0.00 0.00 0.00 0.00 0.00 0.00 0.00 0.00 0.00 0.00 0.00 0.00 0.00 0.00 0.00 0.00 0.00 0.00 0.00 0.00 0.00 0.00 0.00
0.00 0.00 0.00 0.00 0.00 0.00 0.00 0.00 0.00 0.00 0.00 0.00 0.00 0.00 0.00 0.00 0.00 0.00 0.00 0.00 0.00 0.00 0.00 0.00 0.00 0.00 0.00 0.00 0.00 0.00 0.00 0.00 0.00 0.00 0.00 0.00 0.00 0.00 0.00 0.00 0.00 0.00 0.00 0.00 0.00 0.00 0.00 0.00 0.00
0.00 0.00 0.00 0.00 0.00 0.00 0.00 0.00 0.00 0.00 0.00 0.00 0.00 0.00 0.00 0.00 0.00 0.00 0.00 0.00 0.00 0.00 0.00 0.00 0.00 0.00 0.00 0.00 0.00 0.00 0.00 0.00 0.00 0.00 0.00 0.00 0.00 0.00 0.00 0.00 0.00 0.00 0.00 0.00 0.00 0.00 0.00 0.00 0.00
0.00 0.00 0.00 0.00 0.00 0.00 0.00 0.00 0.00 0.00 0.00 0.00 0.00 0.00 0.00 0.00 0.00 0.00 0.00 0.00 0.00 0.00 0.00 0.00 0.00 0.00 0.00 0.00 0.00 0.00 0.00 0.00 0.00 0.00 0.00 0.00 0.00 0.00 0.00 0.00 0.00 0.00 0.00 0.00 0.00 0.00 0.00 0.00 0.00
0.00 0.00 0.00 0.00 0.00 0.00 0.00 0.00 0.00 0.00 0.00 0.00 0.00 0.00 0.00 0.00 0.00 0.00 0.00 0.00 0.00 0.00 0.00 0.00 0.00 0.00 0.00 0.00 0.00 0.00 0.00 0.00 0.00 0.00 0.00 0.00 0.00 0.00 0.00 0.00 0.00 0.00 0.00 0.00 0.00 0.00 0.00 0.00 0.00
0.00 0.00 0.00 0.00 0.00 0.00 0.00 0.00 0.00 0.00 0.00 0.00 0.00 0.00 0.00 0.00 0.00 0.00 0.00 0.00 0.00 0.00 0.00 0.00 0.00 0.00 0.00 0.00 0.00 0.00 0.00 0.00 0.00 0.00 0.00 0.00 0.00 0.00 0.00 0.00 0.00 0.00 0.00 0.00 0.00 0.00 0.00 0.00 0.00
0.00 0.00 0.00 0.00 0.00 0.00 0.00 0.00 0.00 0.00 0.00 0.00 0.00 0.00 0.00 0.00 0.00 0.00 0.00 0.00 0.00 0.00 0.00 0.00 0.00 0.00 0.00 0.00 0.00 0.00 0.00 0.00 0.00 0.00 0.00 0.00 0.00 0.00 0.00 0.00 0.00 0.00 0.00 0.00 0.00 0.00 0.00 0.00 0.00
0.00 0.00 0.00 0.00 0.00 0.00 0.00 0.00 0.00 0.00 0.00 0.00 0.00 0.00 0.00 0.00 0.00 0.00 0.00 0.00 0.00 0.00 0.00 0.00 0.00 0.00 0.00 0.00 0.00 0.00 0.00 0.00 0.00 0.00 0.00 0.00 0.00 0.00 0.00 0.00 0.00 0.00 0.00 0.00 0.00 0.00 0.00 0.00 0.00
0.00 0.00 0.00 0.00 0.00 0.00 0.00 0.00 0.00 0.00 0.00 0.00 0.00 0.00 0.00 0.00 0.00 0.00 0.00 0.00 0.00 0.00 0.00 0.00 0.00 0.00 0.00 0.00 0.00 0.00 0.00 0.00 0.00 0.00 0.00 0.00 0.00 0.00 0.00 0.00 0.00 0.00 0.00 0.00 0.00 0.00 0.00 0.00 0.00
0.00 0.00 0.00 0.00 0.00 0.00 0.00 0.00 0.00 0.00 0.00 0.00 0.00 0.00 0.00 0.00 0.00 0.00 0.00 0.00 0.00 0.00 0.00 0.00 0.00 0.00 0.00 0.00 0.00 0.00 0.00 0.00 0.00 0.00 0.00 0.00 0.00 0.00 0.00 0.00 0.00 0.00 0.00 0.00 0.00 0.00 0.00 0.00 0.00
MSLP
1015.09 1015.93 1017.00 1018.16 1019.23 1020.06 1020.57 1020.71 1020.52 1020.09 1019.57 1019.07 1018.70 1018.50 1018.48 1018.59 1018.77 1018.95 1019.10 1019.20 1019.28 1019.37 1019.53 1019.78 1020.14 1020.59 1021.07 1021.55 1021.99 1022.35 1022.64 1022.87 1023.07 1023.27 1023.49 1023.75 1024.03 1024.31 1024.56 1024.76 1024.91 1024.98 1025.01 1024.99 1024.96 1024.92 1024.90 1024.88 1024.87
1015.44 1016.45 1017.64 1018.81 1019.81 1020.50 1020.79 1020.68 1020.24 1019.58 1018.87 1018.24 1017.79 1017.57 1017.55 1017.69 1017.93 1018.17 1018.39 1018.57 1018.72 1018.90 1019.13 1019.45 1019.86 1020.34 1020.86 1021.37 1021.83 1022.22 1022.54 1022.82 1023.07 1023.33 1023.61 1023.91 1024.23 1024.53 1024.80 1025.00 1025.14 1025.21 1025.23 1025.22 1025.20 1025.18 1025.18 1025.19 1025.22
1015.95 1017.09 1018.30 1019.42 1020.28 1020.76 1020.81 1020.45 1019.78 1018.94 1018.11 1017.41 1016.95 1016.75 1016.78 1016.99 1017.29 1017.61 1017.89 1018.13 1018.36 1018.59 1018.88 1019.24 1019.69 1020.20 1020.74 1021.25 1021.72 1022.12 1022.46 1022.76 1023.04 1023.34 1023.65 1023.97 1024.30 1024.61 1024.87 1025.07 1025.21 1025.29 1025.32 1025.33 1025.34 1025.37 1025.41 1025.48 1025.56
1016.62 1017.80 1018.97 1019.96 1020.62 1020.86 1020.66 1020.07 1019.22 1018.27 1017.38 1016.69 1016.28 1016.15 1016.26 1016.55 1016.92 1017.29 1017.63 1017.92 1018.18 1018.45 1018.78 1019.17 1019.64 1020.15 1020.68 1021.18 1021.63 1022.03 1022.37 1022.67 1022.97 1023.27 1023.59 1023.93 1024.25 1024.56 1024.81 1025.01 1025.15 1025.25 1025.32 1025.38 1025.44 1025.53 1025.63 1025.75 1025.88
1017.38 1018.54 1019.60 1020.41 1020.84 1020.83 1020.40 1019.63 1018.66 1017.67 1016.80 1016.18 1015.86 1015.83 1016.04 1016.39 1016.81 1017.22 1017.58 1017.88 1018.16 1018.45 1018.78 1019.18 1019.65 1020.14 1020.65 1021.13 1021.55 1021.92 1022.25 1022.55 1022.84 1023.15 1023.47 1023.80 1024.12 1024.42 1024.67 1024.88 1025.04 1025.17 1025.29 1025.41 1025.54 1025.68 1025.84 1026.02 1026.19
1018.13 1019.21 1020.11 1020.70 1020.90 1020.67 1020.05 1019.17 1018.16 1017.20 1016.42 1015.91 1015.72 1015.80 1016.09 1016.50 1016.94 1017.34 1017.68 1017.97 1018.23 1018.51 1018.84 1019.23 1019.67 1020.15 1020.62 1021.06 1021.45 1021.80 1022.10 1022.39 1022.68 1022.99 1023.32 1023.66 1023.99 1024.29 1024.55 1024.77 1024.95 1025.12 1025.28 1025.46 1025.65 1025.85 1026.07 1026.28 1026.48
1018.74 1019.69 1020.41 1020.78 1020.77 1020.36 1019.63 1018.70 1017.73 1016.86 1016.22 1015.86 1015.80 1015.98 1016.33 1016.76 1017.18 1017.54 1017.84 1018.08 1018.31 1018.57 1018.88 1019.25 1019.68 1020.12 1020.56 1020.97 1021.33 1021.65 1021.94 1022.22 1022.53 1022.86 1023.21 1023.57 1023.91 1024.23 1024.50 1024.74 1024.95 1025.15 1025.35 1025.56 1025.79 1026.04 1026.28 1026.51 1026.72
1019.12 1019.91 1020.43 1020.61 1020.42 1019.89 1019.11 1018.22 1017.34 1016.62 1016.14 1015.94 1016.00 1016.26 1016.63 1017.03 1017.40 1017.69 1017.92 1018.11 1018.30 1018.53 1018.83 1019.20 1019.62 1020.05 1020.47 1020.85 1021.18 1021.49 1021.78 1022.08 1022.41 1022.77 1023.16 1023.56 1023.93 1024.27 1024.57 1024.82 1025.04 1025.25 1025.47 1025.69 1025.94 1026.20 1026.44 1026.67 1026.87
1019.23 1019.84 1020.18 1020.18 1019.86 1019.27 1018.51 1017.69 1016.95 1016.40 1016.09 1016.02 1016.18 1016.48 1016.83 1017.18 1017.47 1017.68 1017.83 1017.97 1018.14 1018.36 1018.67 1019.05 1019.47 1019.91 1020.32 1020.69 1021.02 1021.33 1021.63 1021.96 1022.33 1022.74 1023.18 1023.62 1024.04 1024.41 1024.72 1024.98 1025.20 1025.40 1025.61 1025.83 1026.06 1026.30 1026.53 1026.74 1026.92
1019.09 1019.53 1019.69 1019.56 1019.15 1018.54 1017.82 1017.12 1016.53 1016.13 1015.96 1016.01 1016.21 1016.51 1016.82 1017.09 1017.29 1017.41 1017.50 1017.61 1017.77 1018.02 1018.36 1018.78 1019.24 1019.70 1020.13 1020.51 1020.85 1021.17 1021.49 1021.86 1022.28 1022.74 1023.24 1023.73 1024.19 1024.58 1024.91 1025.16 1025.36 1025.54 1025.72 1025.90 1026.10 1026.31 1026.52 1026.70 1026.85
1018.80 1019.08 1019.09 1018.84 1018.38 1017.77 1017.12 1016.52 1016.06 1015.79 1015.73 1015.83 1016.04 1016.29 1016.53 1016.70 1016.81 1016.86 1016.91 1017.01 1017.20 1017.50 1017.91 1018.39 1018.91 1019.42 1019.88 1020.29 1020.65 1020.99 1021.34 1021.74 1022.20 1022.71 1023.25 1023.79 1024.28 1024.70 1025.03 1025.28 1025.45 1025.60 1025.73 1025.88 1026.04 1026.22 1026.40 1026.56 1026.69
1018.50 1018.63 1018.51 1018.17 1017.66 1017.07 1016.47 1015.96 1015.59 1015.40 1015.38 1015.48 1015.65 1015.83 1015.97 1016.04 1016.06 1016.06 1016.10 1016.22 1016.46 1016.83 1017.33 1017.89 1018.49 1019.06 1019.57 1020.01 1020.39 1020.76 1021.13 1021.56 1022.05 1022.60 1023.17 1023.74 1024.25 1024.68 1025.01 1025.25 1025.41 1025.53 1025.63 1025.75 1025.89 1026.04 1026.20 1026.35 1026.48
1018.33 1018.31 1018.08 1017.67 1017.13 1016.54 1015.98 1015.51 1015.18 1015.01 1014.97 1015.03 1015.11 1015.19 1015.21 1015.19 1015.13 1015.10 1015.14 1015.29 1015.60 1016.06 1016.64 1017.30 1017.97 1018.61 1019.17 1019.65 1020.06 1020.45 1020.84 1021.28 1021.78 1022.34 1022.93 1023.50 1024.03 1024.46 1024.80 1025.03 1025.19 1025.30 1025.40 1025.51 1025.64 1025.80 1025.96 1026.12 1026.24
1018.35 1018.23 1017.91 1017.43 1016.86 1016.27 1015.72 1015.26 1014.92 1014.72 1014.61 1014.57 1014.54 1014.49 1014.40 1014.28 1014.16 1014.10 1014.14 1014.34 1014.70 1015.23 1015.89 1016.63 1017.37 1018.06 1018.67 1019.19 1019.63 1020.03 1020.44 1020.88 1021.38 1021.93 1022.50 1023.07 1023.59 1024.03 1024.38 1024.63 1024.80 1024.94 1025.06 1025.19 1025.35 1025.53 1025.71 1025.88 1026.01
1018.57 1018.36 1017.98 1017.46 1016.88 1016.28 1015.72 1015.24 1014.86 1014.58 1014.38 1014.21 1014.05 1013.88 1013.68 1013.47 1013.29 1013.20 1013.24 1013.45 1013.85 1014.43 1015.13 1015.91 1016.69 1017.43 1018.08 1018.63 1019.10 1019.52 1019.93 1020.36 1020.84 1021.37 1021.92 1022.47 1022.97 1023.42 1023.78 1024.06 1024.28 1024.46 1024.64 1024.82 1025.03 1025.25 1025.47 1025.66 1025.81
1018.90 1018.64 1018.23 1017.70 1017.12 1016.52 1015.96 1015.45 1015.01 1014.65 1014.33 1014.04 1013.75 1013.45 1013.15 1012.86 1012.63 1012.50 1012.52 1012.73 1013.12 1013.69 1014.39 1015.18 1015.97 1016.73 1017.41 1018.00 1018.49 1018.93 1019.35 1019.77 1020.22 1020.71 1021.22 1021.74 1022.23 1022.67 1023.06 1023.38 1023.66 1023.92 1024.17 1024.42 1024.69 1024.97 1025.22 1025.44 1025.59
1019.21 1018.94 1018.54 1018.04 1017.49 1016.92 1016.37 1015.84 1015.35 1014.90 1014.47 1014.06 1013.66 1013.26 1012.87 1012.51 1012.23 1012.06 1012.04 1012.21 1012.55 1013.07 1013.73 1014.48 1015.26 1016.02 1016.71 1017.32 1017.85 1018.31 1018.73 1019.15 1019.57 1020.01 1020.48 1020.95 1021.42 1021.86 1022.27 1022.64 1022.98 1023.32 1023.65 1023.98 1024.32 1024.65 1024.94 1025.17 1025.33
1019.38 1019.13 1018.79 1018.36 1017.89 1017.39 1016.87 1016.34 1015.81 1015.29 1014.77 1014.26 1013.77 1013.29 1012.84 1012.43 1012.11 1011.89 1011.82 1011.92 1012.18 1012.62 1013.19 1013.86 1014.59 1015.32 1016.02 1016.65 1017.21 1017.69 1018.13 1018.53 1018.93 1019.33 1019.74 1020.16 1020.59 1021.02 1021.44 1021.85 1022.25 1022.66 1023.06 1023.46 1023.86 1024.23 1024.55 1024.80 1024.95
1019.32 1019.14 1018.90 1018.60 1018.25 1017.84 1017.38 1016.86 1016.31 1015.73 1015.15 1014.57 1014.01 1013.47 1012.99 1012.56 1012.21 1011.96 1011.84 1011.85 1012.02 1012.34 1012.80 1013.37 1014.02 1014.71 1015.39 1016.03 1016.61 1017.12 1017.57 1017.96 1018.32 1018.67 1019.02 1019.39 1019.77 1020.17 1020.58 1021.02 1021.46 1021.92 1022.37 1022.82 1023.26 1023.65 1023.99 1024.24 1024.41
1019.03 1018.96 1018.86 1018.72 1018.52 1018.23 1017.84 1017.35 1016.79 1016.17 1015.53 1014.89 1014.28 1013.73 1013.24 1012.82 1012.47 1012.21 1012.04 1011.98 1012.04 1012.24 1012.57 1013.03 1013.59 1014.21 1014.86 1015.49 1016.08 1016.60 1017.05 1017.43 1017.76 1018.05 1018.33 1018.63 1018.94 1019.30 1019.69 1020.12 1020.58 1021.06 1021.54 1022.01 1022.46 1022.86 1023.21 1023.47 1023.64
1018.59 1018.67 1018.75 1018.78 1018.74 1018.57 1018.25 1017.78 1017.20 1016.53 1015.83 1015.15 1014.53 1013.98 1013.51 1013.12 1012.81 1012.56 1012.37 1012.26 1012.24 1012.32 1012.53 1012.86 1013.31 1013.85 1014.44 1015.05 1015.63 1016.14 1016.58 1016.93 1017.21 1017.44 1017.64 1017.85 1018.10 1018.39 1018.73 1019.13 1019.58 1020.04 1020.52 1020.99 1021.44 1021.84 1022.18 1022.45 1022.65
1018.16 1018.40 1018.66 1018.88 1018.97 1018.90 1018.63 1018.16 1017.53 1016.80 1016.04 1015.32 1014.68 1014.15 1013.73 1013.40 1013.15 1012.95 1012.78 1012.64 1012.56 1012.55 1012.64 1012.84 1013.18 1013.62 1014.14 1014.69 1015.23 1015.71 1016.12 1016.42 1016.64 1016.79 1016.92 1017.04 1017.20 1017.41 1017.69 1018.04 1018.44 1018.88 1019.33 1019.77 1020.19 1020.58 1020.92 1021.21 1021.44
1017.88 1018.29 1018.73 1019.09 1019.30 1019.28 1019.01 1018.50 1017.80 1016.99 1016.16 1015.38 1014.73 1014.23 1013.87 1013.63 1013.47 1013.34 1013.21 1013.09 1012.96 1012.88 1012.87 1012.95 1013.17 1013.50 1013.92 1014.39 1014.86 1015.28 1015.63 1015.88 1016.02 1016.10 1016.13 1016.16 1016.23 1016.37 1016.57 1016.86 1017.20 1017.58 1017.98 1018.38 1018.77 1019.13 1019.47 1019.78 1020.06
1017.85 1018.42 1019.00 1019.47 1019.74 1019.73 1019.42 1018.83 1018.03 1017.11 1016.19 1015.37 1014.71 1014.24 1013.95 1013.81 1013.75 1013.71 1013.65 1013.54 1013.41 1013.27 1013.17 1013.14 1013.23 1013.44 1013.75 1014.11 1014.49 1014.84 1015.11 1015.27 1015.34 1015.33 1015.28 1015.23 1015.22 1015.27 1015.40 1015.61 1015.88 1016.20 1016.54 1016.89 1017.24 1017.58 1017.91 1018.24 1018.57
1018.08 1018.77 1019.45 1019.98 1020.26 1020.21 1019.82 1019.12 1018.21 1017.18 1016.18 1015.31 1014.65 1014.22 1014.00 1013.95 1013.99 1014.04 1014.05 1013.98 1013.84 1013.66 1013.49 1013.36 1013.33 1013.42 1013.60 1013.85 1014.12 1014.36 1014.54 1014.62 1014.61 1014.53 1014.40 1014.27 1014.18 1014.16 1014.21 1014.35 1014.56 1014.81 1015.09 1015.38 1015.68 1015.99 1016.31 1016.65 1017.02
1018.49 1019.27 1020.00 1020.53 1020.77 1020.65 1020.16 1019.35 1018.32 1017.21 1016.14 1015.24 1014.59 1014.20 1014.06 1014.09 1014.22 1014.35 1014.41 1014.37 1014.23 1014.02 1013.78 1013.56 1013.43 1013.39 1013.45 1013.58 1013.74 1013.88 1013.97 1013.96 1013.88 1013.72 1013.53 1013.33 1013.18 1013.09 1013.08 1013.15 1013.28 1013.47 1013.68 1013.91 1014.16 1014.43 1014.73 1015.08 1015.46
1018.96 1019.77 1020.49 1020.98 1021.15 1020.93 1020.35 1019.44 1018.34 1017.17 1016.08 1015.19 1014.56 1014.22 1014.13 1014.23 1014.42 1014.60 1014.71 1014.68 1014.54 1014.29 1014.00 1013.71 1013.48 1013.34 1013.29 1013.32 1013.37 1013.42 1013.41 1013.33 1013.18 1012.96 1012.71 1012.46 1012.26 1012.11 1012.04 1012.05 1012.11 1012.23 1012.37 1012.53 1012.73 1012.95 1013.22 1013.54 1013.92
1019.32 1020.12 1020.78 1021.19 1021.26 1020.96 1020.30 1019.35 1018.22 1017.06 1016.00 1015.15 1014.57 1014.29 1014.25 1014.39 1014.61 1014.81 1014.92 1014.89 1014.73 1014.45 1014.12 1013.78 1013.49 1013.28 1013.15 1013.08 1013.05 1013.01 1012.93 1012.79 1012.57 1012.30 1012.00 1011.70 1011.45 1011.25 1011.13 1011.07 1011.07 1011.11 1011.18 1011.27 1011.40 1011.56 1011.78 1012.07 1012.42
1019.47 1020.19 1020.75 1021.05 1021.03 1020.66 1019.97 1019.03 1017.95 1016.85 1015.88 1015.12 1014.62 1014.39 1014.39 1014.54 1014.75 1014.94 1015.02 1014.97 1014.79 1014.49 1014.14 1013.78 1013.46 1013.20 1013.02 1012.90 1012.80 1012.70 1012.55 1012.35 1012.08 1011.75 1011.41 1011.07 1010.77 1010.52 1010.34 1010.22 1010.15 1010.11 1010.11 1010.12 1010.18 1010.27 1010.43 1010.66 1010.97
1019.37 1019.96 1020.38 1020.57 1020.46 1020.06 1019.38 1018.51 1017.53 1016.58 1015.74 1015.10 1014.69 1014.52 1014.53 1014.67 1014.84 1014.98 1015.01 1014.93 1014.72 1014.42 1014.06 1013.71 1013.39 1013.13 1012.93 1012.78 1012.64 1012.48 1012.28 1012.02 1011.69 1011.33 1010.93 1010.55 1010.20 1009.90 1009.65 1009.46 1009.32 1009.21 1009.12 1009.06 1009.04 1009.06 1009.15 1009.32 1009.57
Thickness
5744 5743 5741 5729 5705 5684 5684 5697 5708 5709 5713 5722 5725 5721 5715 5712 5706 5704 5714 5714 5712 5707 5701 5698 5693 5689 5685 5682 5680 5677 5675 5673 5670 5669 5667 5665 5663 5662 5660 5659 5657 5656 5656 5656 5655 5655 5654 5655 5655
5744 5743 5733 5716 5690 5676 5683 5702 5706 5714 5722 5724 5725 5722 5716 5715 5718 5713 5711 5712 5711 5707 5702 5698 5693 5689 5685 5682 5679 5676 5673 5671 5668 5666 5664 5661 5660 5658 5656 5654 5653 5652 5651 5650 5649 5649 5648 5648 5649
5745 5741 5721 5703 5689 5681 5694 5708 5711 5720 5723 5724 5721 5723 5721 5721 5718 5715 5717 5714 5710 5705 5701 5698 5693 5689 5685 5681 5678 5675 5671 5669 5666 5663 5661 5659 5656 5654 5652 5650 5649 5647 5646 5645 5644 5643 5643 5643 5643
5740 5728 5714 5697 5693 5698 5706 5715 5715 5715 5719 5723 5720 5717 5722 5728 5725 5723 5720 5714 5709 5704 5700 5696 5692 5688 5684 5680 5677 5673 5670 5667 5664 5661 5658 5656 5654 5651 5649 5647 5645 5643 5642 5640 5639 5638 5638 5637 5637
5734 5716 5701 5689 5694 5706 5715 5721 5718 5713 5715 5719 5719 5715 5718 5725 5726 5724 5720 5714 5709 5703 5698 5694 5691 5686 5682 5678 5675 5671 5668 5665 5662 5659 5656 5654 5651 5648 5646 5644 5642 5640 5638 5637 5635 5634 5633 5632 5632
5719 5706 5687 5682 5692 5707 5717 5724 5718 5716 5716 5717 5715 5713 5719 5720 5720 5720 5718 5712 5707 5702 5697 5692 5689 5685 5681 5677 5673 5670 5666 5663 5660 5657 5654 5651 5648 5646 5643 5641 5639 5637 5635 5633 5631 5630 5629 5628 5627
5713 5698 5689 5691 5691 5699 5716 5725 5719 5718 5717 5718 5718 5712 5715 5715 5715 5715 5712 5707 5702 5697 5693 5690 5688 5683 5679 5675 5672 5668 5665 5661 5658 5655 5652 5649 5646 5644 5641 5638 5636 5634 5631 5629 5627 5626 5624 5623 5622
5718 5700 5694 5690 5692 5699 5717 5724 5725 5721 5721 5726 5721 5712 5712 5715 5711 5707 5704 5700 5696 5693 5690 5687 5685 5682 5678 5674 5670 5667 5663 5660 5657 5653 5650 5647 5644 5641 5639 5636 5633 5631 5628 5626 5624 5622 5620 5619 5618
5720 5692 5683 5690 5696 5703 5717 5718 5723 5727 5723 5724 5723 5721 5723 5717 5708 5701 5696 5693 5691 5689 5688 5685 5683 5680 5676 5672 5669 5665 5661 5658 5655 5651 5648 5645 5642 5639 5636 5633 5630 5628 5625 5623 5620 5618 5616 5614 5613
5707 5685 5691 5704 5709 5711 5715 5716 5720 5718 5714 5715 5718 5716 5713 5711 5707 5702 5699 5695 5692 5690 5688 5685 5682 5678 5674 5670 5667 5663 5660 5657 5653 5650 5646 5643 5639 5636 5633 5629 5627 5625 5622 5619 5617 5614 5612 5610 5608
5706 5696 5703 5711 5716 5716 5714 5716 5720 5715 5708 5712 5715 5716 5706 5704 5703 5703 5702 5701 5700 5695 5688 5685 5681 5677 5673 5669 5665 5661 5658 5654 5651 5647 5644 5640 5636 5632 5629 5626 5624 5621 5619 5616 5613 5611 5608 5606 5604
5707 5706 5710 5713 5718 5717 5715 5716 5714 5713 5717 5726 5724 5719 5707 5702 5702 5703 5703 5702 5698 5693 5689 5686 5681 5676 5672 5668 5664 5660 5656 5652 5648 5645 5641 5637 5632 5629 5626 5623 5620 5617 5615 5612 5609 5606 5603 5601 5599
5704 5707 5713 5715 5713 5713 5714 5711 5710 5713 5726 5725 5722 5716 5709 5707 5706 5707 5706 5703 5697 5693 5689 5686 5681 5676 5671 5667 5662 5658 5654 5650 5646 5642 5638 5634 5629 5625 5622 5618 5615 5613 5610 5607 5604 5601 5598 5595 5593
5706 5706 5705 5709 5712 5713 5711 5709 5706 5717 5726 5722 5719 5715 5712 5711 5710 5705 5701 5699 5697 5695 5691 5686 5681 5676 5671 5666 5661 5658 5653 5648 5643 5639 5636 5632 5627 5622 5618 5614 5611 5608 5605 5603 5599 5596 5593 5590 5587
5702 5698 5697 5705 5709 5710 5709 5700 5703 5719 5719 5715 5716 5716 5715 5714 5711 5708 5708 5706 5703 5698 5693 5687 5681 5675 5670 5665 5660 5655 5650 5645 5641 5637 5632 5628 5624 5620 5615 5610 5607 5604 5601 5597 5593 5590 5586 5583 5581
5691 5684 5679 5696 5704 5704 5700 5688 5706 5715 5711 5710 5712 5712 5713 5714 5713 5713 5711 5708 5703 5697 5691 5686 5680 5674 5669 5664 5659 5654 5648 5644 5639 5634 5630 5625 5621 5616 5611 5607 5604 5600 5595 5591 5587 5583 5579 5577 5574
5674 5667 5671 5682 5697 5696 5692 5688 5706 5710 5707 5705 5705 5707 5711 5713 5713 5712 5711 5708 5703 5697 5690 5683 5678 5673 5667 5661 5656 5651 5646 5641 5637 5632 5627 5622 5617 5612 5608 5604 5600 5595 5590 5585 5581 5577 5573 5570 5567
5667 5665 5666 5670 5686 5689 5682 5683 5700 5705 5702 5698 5698 5701 5705 5708 5711 5713 5711 5706 5700 5693 5686 5680 5674 5669 5662 5655 5650 5645 5641 5638 5634 5630 5625 5620 5614 5609 5604 5600 5595 5589 5584 5579 5574 5571 5566 5563 5559
5670 5666 5661 5668 5682 5682 5678 5680 5691 5697 5696 5694 5693 5694 5698 5702 5707 5710 5707 5700 5693 5687 5682 5677 5671 5665 5658 5651 5645 5640 5638 5634 5630 5626 5622 5617 5611 5605 5599 5595 5589 5583 5578 5575 5569 5563 5558 5553 5546
5669 5664 5660 5668 5677 5675 5673 5675 5685 5691 5691 5688 5688 5688 5690 5694 5698 5699 5697 5692 5688 5683 5678 5673 5669 5663 5657 5652 5647 5640 5635 5630 5626 5621 5617 5612 5607 5601 5596 5590 5585 5579 5573 5568 5563 5556 5550 5545 5537
5667 5662 5661 5662 5664 5668 5666 5669 5677 5684 5684 5682 5682 5683 5684 5686 5685 5687 5686 5684 5679 5676 5672 5670 5665 5660 5654 5648 5640 5632 5625 5622 5618 5614 5611 5607 5602 5597 5592 5587 5581 5574 5568 5564 5558 5550 5543 5538 5531
5657 5668 5666 5663 5653 5646 5651 5642 5661 5673 5674 5675 5674 5673 5675 5676 5677 5676 5676 5675 5672 5670 5667 5662 5658 5653 5647 5640 5633 5627 5623 5620 5619 5613 5608 5603 5597 5592 5587 5582 5576 5570 5564 5559 5553 5545 5538 5530 5526
5664 5667 5662 5659 5652 5642 5643 5637 5647 5663 5665 5667 5668 5669 5669 5668 5667 5667 5666 5665 5664 5661 5658 5654 5649 5644 5639 5633 5628 5622 5620 5618 5613 5606 5601 5596 5592 5587 5583 5577 5570 5565 5560 5555 5548 5541 5533 5527 5522
5665 5657 5651 5642 5635 5634 5645 5635 5642 5651 5662 5662 5663 5662 5661 5660 5658 5657 5656 5655 5653 5651 5647 5644 5640 5635 5631 5625 5620 5615 5612 5608 5603 5597 5593 5590 5585 5581 5577 5570 5565 5560 5555 5550 5543 5536 5529 5524 5517
5654 5639 5628 5631 5623 5630 5641 5638 5641 5660 5665 5661 5657 5654 5652 5650 5648 5647 5646 5644 5642 5641 5638 5634 5630 5626 5622 5616 5611 5607 5604 5600 5595 5592 5587 5583 5579 5575 5571 5564 5559 5554 5550 5544 5537 5530 5524 5518 5512
5649 5637 5621 5618 5613 5618 5631 5632 5646 5657 5660 5656 5651 5647 5645 5642 5639 5639 5637 5634 5632 5632 5629 5625 5621 5617 5613 5608 5604 5600 5595 5591 5588 5585 5581 5577 5574 5571 5565 5559 5554 5550 5544 5538 5531 5525 5519 5513 5508
5644 5632 5629 5614 5611 5607 5616 5628 5643 5650 5647 5644 5641 5639 5636 5634 5633 5631 5629 5627 5624 5622 5619 5616 5612 5609 5605 5601 5596 5591 5587 5583 5580 5577 5573 5569 5566 5563 5558 5553 5548 5543 5537 5531 5525 5519 5515 5508 5503
5642 5630 5614 5608 5600 5596 5605 5616 5627 5638 5636 5634 5632 5631 5629 5627 5625 5623 5620 5617 5614 5612 5608 5606 5602 5599 5596 5592 5587 5584 5579 5575 5571 5567 5563 5560 5557 5553 5548 5544 5539 5535 5529 5524 5517 5514 5509 5502 5499
5627 5624 5616 5602 5594 5587 5589 5609 5634 5637 5633 5628 5626 5624 5621 5619 5616 5613 5610 5608 5604 5601 5598 5595 5592 5589 5585 5582 5578 5573 5569 5564 5560 5555 5552 5549 5545 5541 5536 5533 5528 5524 5520 5514 5509 5506 5501 5495 5492
5627 5622 5610 5600 5595 5587 5580 5605 5636 5632 5628 5625 5620 5618 5614 5611 5608 5604 5600 5597 5593 5589 5586 5583 5580 5577 5574 5570 5565 5560 5556 5551 5546 5542 5539 5536 5532 5528 5523 5520 5516 5512 5508 5504 5499 5496 5492 5487 5483